Weather History for Beaumont, TX

Change the Weather History Date:

Thursday, December 13, 2012

  Actual Average Record
Temperature  
Mean Temperature 48 °F 54 °F  
Max Temperature 61 °F 64 °F 83 °F (1921)
Min Temperature 34 °F 45 °F 20 °F (1962)
Degree Days  
Heating Degree Days 17 11  
Month to date heating degree days 68 132  
Since 1 July heating degree days 261 327  
Cooling Degree Days 0 1  
Month to date cooling degree days 42 13  
Year to date cooling degree days 3177 2868  
Moisture  
Dew Point 32 °F    
Average Humidity 56    
Maximum Humidity 82    
Minimum Humidity 29    
Precipitation  
Precipitation 0.00 in 0.17 in 7.43 in (1991)
Month to date precipitation 3.99 2.11  
Year to date precipitation 61.35 57.29  
Snow  
Snow 0.00 in 0.00 in 0.00 in ()
Month to date snowfall 0.0 0.0  
Since 1 July snowfall 0.0 0.0  
Snow Depth 0.00 in    
Sea Level Pressure  
Sea Level Pressure 30.30 in    
Wind  
Wind Speed 5 mph (ENE)    
Max Wind Speed 14 mph    
Max Gust Speed 17 mph    
Visibility 10 miles    
Events      
T = Trace of Precipitation, MM = Missing Value Source: NWS Daily Summary

Daily Weather History Graph

Daily Weather History Graph

Search for Another Location

Airport:

Trip Planner

Search our weather history database for the weather conditions in past years. The results will help you decide how hot, cold, wet, or windy it might be!

Date:

Astronomy

Dec. 13, 2012 Rise Set
Actual Time 7:03 AM CST 5:17 PM CST
Civil Twilight 6:37 AM CST 5:44 PM CST
Nautical Twilight 6:07 AM CST 6:13 PM CST
Astronomical Twilight 5:38 AM CST 6:43 PM CST
Moon 7:13 AM CST (12/13) 5:59 PM CST (12/13)
Length of Visible Light 11h 07m
Length of Day
10h 14m
New Moon, 0% of the Moon is Illuminated
Dec 13
New Moon
Dec 19
First Quarter
Dec 28
Full
Jan 4
Last Quarter
Jan 11
New

Hourly Weather History & Observations

Time (CST) Temp. Windchill Dew Point Humidity Pressure Visibility Wind Dir Wind Speed Gust Speed Precip Events Conditions
12:53 AM 37.9 °F 35.5 °F 30.9 °F 76% 30.31 in 10.0 mi NE 3.5 mph - N/A   Clear
1:53 AM 36.0 °F - 30.9 °F 82% 30.31 in 10.0 mi Calm Calm - N/A   Clear
2:53 AM 35.1 °F 31.0 °F 30.0 °F 82% 30.31 in 10.0 mi NE 4.6 mph - N/A   Clear
3:53 AM 39.0 °F 34.8 °F 32.0 °F 76% 30.32 in 10.0 mi NNE 5.8 mph - N/A   Clear
4:53 AM 37.9 °F 33.5 °F 30.9 °F 76% 30.32 in 10.0 mi NNE 5.8 mph - N/A   Clear
5:53 AM 35.1 °F 32.2 °F 30.0 °F 82% 30.33 in 10.0 mi NE 3.5 mph - N/A   Clear
6:53 AM 36.0 °F 32.1 °F 30.0 °F 79% 30.34 in 10.0 mi NE 4.6 mph - N/A   Clear
7:53 AM 37.9 °F 32.7 °F 30.9 °F 76% 30.35 in 10.0 mi ENE 6.9 mph - N/A   Clear
8:53 AM 46.0 °F 42.5 °F 35.1 °F 66% 30.36 in 10.0 mi ENE 6.9 mph - N/A   Clear
9:53 AM 51.1 °F - 32.0 °F 48% 30.36 in 10.0 mi East 10.4 mph - 0.01 in   Clear
10:53 AM 54.0 °F - 33.1 °F 45% 30.35 in 10.0 mi East 9.2 mph - 0.01 in   Clear
11:53 AM 57.0 °F - 30.9 °F 37% 30.33 in 10.0 mi East 10.4 mph - N/A   Clear
12:53 PM 57.9 °F - 28.0 °F 32% 30.30 in 10.0 mi East 8.1 mph - N/A   Clear
1:53 PM 59.0 °F - 28.0 °F 31% 30.28 in 10.0 mi Calm Calm - N/A   Clear
2:53 PM 60.1 °F - 28.9 °F 31% 30.27 in 10.0 mi SE 4.6 mph - N/A   Clear
3:53 PM 59.0 °F - 28.9 °F 32% 30.25 in 10.0 mi ESE 8.1 mph - N/A   Clear
6:53 PM 46.4 °F 45.2 °F 32.0 °F 57% 30.27 in 10.0 mi ESE 3.5 mph - N/A   Clear
7:53 PM 46.0 °F - 34.0 °F 63% 30.27 in 10.0 mi Calm Calm - N/A   Clear
8:53 PM 45.0 °F - 36.0 °F 71% 30.27 in 10.0 mi Calm Calm - N/A   Clear
9:53 PM 42.1 °F - 37.0 °F 82% 30.27 in 10.0 mi Calm Calm - N/A   Clear
10:53 PM 44.1 °F - 37.9 °F 79% 30.27 in 10.0 mi Calm Calm - N/A   Clear
11:53 PM 46.4 °F 42.9 °F 39.2 °F 76% 30.24 in 10.0 mi ENE 6.9 mph - N/A   Mostly Cloudy